EA3BAX-1 Weather Reports


time (UTC)temp
C
wind
direction
speed
KPH
gust
KPH
rain 1hr
cm
rain 24hr
cm
rain mn
cm
humidity
%
barometer
mb
20260509224117 20 0 4.8 8.0 0.00 0.00 0.00 100 1009.8
20260509204116 18 0 3.2 6.4 0.00 0.00 0.00 100 1008.8
20260509203117 18 0 4.8 6.4 0.00 0.00 0.00 100 1008.8
20260509181116 17 90 14.5 16.1 0.00 0.00 0.00 100 1005.8
20260509180116 17 90 9.7 11.3 0.00 0.00 0.00 100 1006.8
20260509175136 17 0 4.8 11.3 0.00 0.00 0.00 100 1006.8
20260509174116 18 0 6.4 14.5 0.00 0.00 0.00 100 1006.8
20260509173117 18 0 4.8 8.0 0.00 0.00 0.00 100 1007.8
20260509172115 17 90 6.4 8.0 0.00 0.00 0.00 100 1008.8
20260509171115 17 0 8.0 8.0 0.00 0.00 0.00 100 1008.8
20260509170115 17 0 0.0 0.0 0.00 0.00 0.00 100 1008.8
20260509165135 17 225 4.8 6.4 0.00 0.00 0.00 100 1008.8
20260509164115 17 225 6.4 8.0 0.00 0.00 0.00 100 1008.8
20260509163135 16 225 4.8 8.0 0.00 0.00 0.00 100 1008.8
20260509162115 16 0 3.2 8.0 0.00 0.00 0.00 99 1007.8
20260509161115 17 90 6.4 12.9 0.00 0.00 0.00 99 1007.8
20260509160115 17 0 0.0 12.9 0.00 0.00 0.00 99 1007.8
20260509155115 17 90 8.0 16.1 0.00 0.00 0.00 100 1006.8
20260509154115 18 90 6.4 17.7 0.00 0.00 0.00 100 1006.8
20260509153115 17 90 3.2 17.7 0.00 0.00 0.00 100 1006.8
20260509152115 17 0 0.0 14.5 0.00 0.00 0.00 99 1007.8
20260509151115 17 90 4.8 9.7 0.00 0.00 0.00 96 1007.8
20260509150116 17 90 6.4 8.0 0.00 0.00 0.00 92 1008.8
20260509145115 17 90 6.4 8.0 0.00 0.00 0.00 92 1008.8
20260509144116 18 90 3.2 4.8 0.00 0.00 0.00 89 1008.8
20260509143115 18 180 0.0 4.8 0.00 0.00 0.00 83 1009.8
20260509142117 19 180 3.2 6.4 0.00 0.00 0.00 77 1008.8
20260509120134 20 90 0.0 8.0 0.00 0.00 0.00 78 1009.8
20260509115114 20 90 8.0 11.3 0.00 0.00 0.00 77 1009.8
20260509114114 20 90 8.0 12.9 0.00 0.00 0.00 76 1009.8
20260509113114 20 90 8.0 11.3 0.00 0.00 0.00 77 1009.8
20260509112115 20 90 9.7 12.9 0.00 0.00 0.00 78 1009.8
20260509111114 20 0 3.2 14.5 0.00 0.00 0.00 79 1009.8
20260509110134 20 180 3.2 11.3 0.00 0.00 0.00 80 1009.8
20260509105115 20 90 9.7 16.1 0.00 0.00 0.00 79 1009.8
20260509104134 20 90 11.3 14.5 0.00 0.00 0.00 80 1009.8
20260509103114 20 90 12.9 12.9 0.00 0.00 0.00 79 1009.8